x

8720218 - Mayport (bar Pilots Dock), Fl (mypf1) Weather Station

5:30am - Sun 31st Jul 2016 All times are EDT. -4 hours from GMT.

  • Wind
    2mph, 6mph gusts
  • Sea Temp 87°f
  • Air Temp 79°f
  • Sea Pressure 1017.6mb
  • 8720218 - Mayport (bar Pilots Dock), Fl
  • 8720218 - Mayport (bar Pilots Dock), Fl

More Historic Weather Station data

Upgrade to MSW Pro to gain access to the past 30 days of data for over 8000 Wavebouys and Weather Stations around the globe.

Join Pro

Comparision Forecast

View Surf forecast
   
Sun 07/31 5:30am 2 6 mph 1017.6mb 87f 79f
5:24am 5 6 mph 1017.5mb 87f 79f
5:18am 5 6 mph 1017.4mb 87f 79f
5:12am 3 5 mph 1017.3mb 87f 79f
5:06am 3 5 mph 1017.3mb 88f 79f
5:00am 3 5 mph 1017.3mb 88f 79f
4:54am 3 5 mph 1017.2mb 88f 79f
4:48am 3 5 mph 1017.2mb 88f 79f
4:42am 3 5 mph 1017.2mb 88f 79f
4:36am 3 5 mph 1017.2mb 88f 80f
4:30am 3 6 mph 1017.2mb 88f 80f
4:24am 3 6 mph 1017.3mb 88f 80f
4:18am 5 6 mph 1017.1mb 88f 80f
4:12am 5 7 mph 1017.1mb 88f 80f
4:06am 6 8 mph 1017.1mb 88f 80f
4:00am 5 7 mph 1017.1mb 88f 80f
3:54am 5 6 mph 1017.2mb 88f 80f
3:48am 6 8 mph 1017.2mb 88f 80f
3:42am 6 9 mph 1017.1mb 88f 80f
3:36am 6 8 mph 1017.2mb 88f 80f
3:30am 6 9 mph 1017.3mb 88f 80f
3:24am 7 9 mph 1017.3mb 88f 80f
3:18am 6 8 mph 1017.3mb 88f 80f
3:12am 7 9 mph 1017.3mb 88f 80f
3:06am 6 9 mph 1017.2mb 88f 80f
3:00am 6 9 mph 1017.3mb 88f 80f
2:54am 6 8 mph 1017.2mb 88f 80f
2:48am 6 9 mph 1017.2mb - -
2:42am 6 9 mph 1017.2mb - -
2:36am 6 8 mph 1017.3mb - -
2:30am 6 9 mph 1017.4mb 88f 81f
2:24am 7 10 mph 1017.3mb 88f 81f
2:18am 5 7 mph 1017.3mb 88f 81f
2:12am 5 8 mph 1017.3mb 88f 81f
2:06am 7 9 mph 1017.4mb 88f 81f
2:00am 5 7 mph 1017.5mb 88f 81f
1:54am 5 8 mph 1017.6mb 88f 81f
1:48am 6 9 mph 1017.7mb 88f -
1:42am 6 9 mph 1017.6mb 88f -
1:36am 6 9 mph 1017.6mb 88f -
1:30am 7 9 mph 1017.8mb 88f 81f
1:24am 6 9 mph 1017.9mb 88f 81f
1:18am 5 9 mph 1017.9mb 88f 81f
1:12am 7 11 mph 1017.8mb 88f 81f
1:06am 7 9 mph 1017.9mb 88f 81f
1:00am 7 9 mph 1018mb 88f 81f
12:54am 5 9 mph 1018mb 88f 81f
12:48am 6 8 mph 1018mb 88f 81f
12:42am 6 8 mph 1017.8mb 88f 81f
12:36am 7 10 mph 1017.9mb 88f 82f
12:30am 7 10 mph 1017.8mb 88f 82f
12:24am 6 9 mph 1017.9mb 88f 82f
12:18am 5 10 mph 1018mb 88f 82f
12:12am 6 9 mph 1018.1mb 87f 82f
12:06am 6 9 mph 1018mb 87f 82f
12:00am 7 10 mph 1018mb 87f 82f
Sat 07/30 11:54pm 6 10 mph 1018.1mb 87f 82f
11:48pm 7 10 mph 1018.1mb 87f 82f
11:42pm 6 9 mph 1018.1mb 87f 82f
11:36pm 7 11 mph 1018.1mb 87f 82f
11:30pm 7 10 mph 1018.2mb 87f 82f
11:24pm 6 7 mph 1018.3mb 88f 82f
11:18pm  -  mph 1018.4mb 88f -
11:12pm  -  mph 1018.4mb 88f -
11:06pm  -  mph 1018.5mb 87f -
11:00pm  -  mph - 87f -
10:54pm  -  mph - 87f -
10:48pm 6 9 mph 1018.5mb 87f -
10:42pm 7 8 mph 1018.5mb 87f -
10:36pm 5 7 mph 1018.5mb 87f -
10:30pm 5 8 mph - - -
10:24pm 6 8 mph - - -
10:18pm 7 9 mph 1018.4mb 87f -
10:12pm 6 10 mph 1018.3mb 87f -
10:06pm 7 10 mph 1018.2mb 87f -
10:00pm 5 9 mph 1018.1mb 87f -
9:54pm 7 9 mph 1017.8mb 87f -
9:48pm 6 8 mph - - -
9:42pm 5 8 mph - - -
9:36pm 7 11 mph - - -
9:30pm  -  mph - 87f -
9:24pm  -  mph - 87f -
9:18pm 6 9 mph - 87f -
9:12pm 7 9 mph - 87f -
9:06pm 6 7 mph - 87f -
9:00pm 6 9 mph 1017.1mb 87f -
8:54pm 6 9 mph 1017mb 87f -
8:48pm 7 11 mph 1017.1mb 87f -
8:42pm 9 11 mph 1017.1mb 87f -
8:36pm 8 13 mph 1017.1mb 87f -
8:30pm 6 11 mph - - -
8:24pm 6 9 mph - - -
8:18pm 8 11 mph - 87f 85f
8:12pm 8 11 mph - 87f 85f
8:06pm 7 14 mph - 87f 86f
8:00pm  -  mph - 87f -
7:54pm  -  mph - 87f -
7:48pm  -  mph - 87f -
7:42pm  -  mph - 87f -
7:36pm  -  mph - 87f -
7:30pm 6 11 mph - - -
7:24pm 7 9 mph - - -
7:18pm 6 10 mph 1016.3mb 87f -
7:12pm 6 8 mph 1016.1mb 87f -
7:06pm 7 9 mph 1016.1mb 87f -
7:00pm 7 11 mph 1016.1mb 87f -
6:54pm 7 11 mph 1015.9mb 87f -
6:48pm 9 14 mph 1015.8mb 87f -
6:42pm 7 13 mph 1015.9mb 87f -
6:36pm 8 14 mph 1016mb 87f -
6:30pm 9 15 mph - 87f 88f
6:24pm 7 14 mph - 87f 89f
6:18pm 7 15 mph 1016mb 87f -
6:12pm 8 14 mph 1016.1mb 87f -
6:06pm 8 14 mph 1016.2mb 87f -
6:00pm  -  mph - 87f 89f
5:54pm  -  mph - 87f 89f
5:48pm 11 15 mph 1016.2mb 87f 89f
5:42pm 8 15 mph 1016.2mb 87f 89f
5:36pm 10 16 mph 1016.2mb 87f 89f
5:30pm 8 16 mph 1016.2mb 87f 89f
5:24pm 13 17 mph 1016.2mb 87f 88f
5:18pm 9 15 mph 1016.1mb 87f 89f
5:12pm 9 16 mph 1016mb 87f 89f
5:06pm 11 17 mph 1016.2mb 87f 88f
5:00pm 10 16 mph 1016.3mb 87f 89f
4:54pm 10 15 mph 1016.3mb 87f 89f
4:48pm 10 14 mph 1016.2mb 87f 89f
4:42pm 7 14 mph 1016.3mb 87f 89f
4:36pm 9 15 mph 1016.3mb 87f 89f
4:30pm 10 15 mph 1016.5mb 87f 89f
4:24pm 13 16 mph 1016.4mb 87f 88f
4:18pm 10 15 mph 1016.4mb 87f 89f
4:12pm 9 13 mph 1016.4mb 87f 89f
4:06pm 8 11 mph 1016.5mb 88f 89f
4:00pm 9 14 mph 1016.5mb 88f 89f
3:54pm 9 14 mph 1016.7mb 88f 89f
3:48pm 9 13 mph 1016.8mb 88f 88f
3:42pm 8 14 mph 1016.9mb 89f 89f
3:36pm 9 14 mph 1017mb 89f 88f
3:30pm 11 16 mph 1017mb 89f 88f
3:24pm 10 15 mph 1017.1mb 89f 89f
3:18pm 9 14 mph 1017.1mb 89f 89f
3:12pm 10 15 mph 1017.2mb 89f 89f
3:06pm 8 13 mph 1017.4mb 89f 89f
3:00pm 9 11 mph 1017.4mb 89f 88f
2:54pm 7 11 mph 1017.4mb 89f 89f
2:48pm 8 13 mph 1017.6mb 89f 88f
2:42pm 9 14 mph 1017.5mb 89f 89f
2:36pm 8 14 mph 1017.3mb 89f 89f
2:30pm 6 11 mph 1017.4mb 89f 89f
2:24pm 9 13 mph 1017.5mb 89f 89f
2:18pm 8 13 mph 1017.6mb 89f 88f
2:12pm 8 13 mph 1017.7mb 89f 89f
2:06pm 7 11 mph 1017.7mb 88f 89f
2:00pm 8 13 mph 1017.9mb 89f 88f
1:54pm 8 11 mph 1017.8mb 89f 89f
1:48pm 9 11 mph 1018mb 88f 87f
1:42pm 9 11 mph 1018.1mb 89f 87f
1:36pm 10 13 mph 1018mb 88f 87f
1:30pm 9 11 mph 1018mb 88f 87f
1:24pm 9 11 mph 1018.1mb 88f 87f
1:18pm 9 10 mph 1018.2mb 88f 87f
1:12pm 9 11 mph 1018.4mb 88f 87f
1:06pm 9 11 mph 1018.4mb 88f 87f
1:00pm 8 11 mph 1018.4mb 88f 87f
12:54pm 9 11 mph 1018.4mb 88f 87f
12:48pm 10 13 mph 1018.5mb 88f 87f
12:42pm 9 13 mph 1018.4mb 88f 86f
12:36pm 10 13 mph 1018.4mb 88f 86f
12:30pm 9 10 mph 1018.5mb 88f 86f
12:24pm 8 11 mph 1018.5mb 88f 87f
12:18pm 9 10 mph 1018.5mb 88f 87f
12:12pm 9 11 mph 1018.6mb 88f 87f
12:06pm 7 14 mph 1018.7mb 88f 87f
12:00pm 8 10 mph 1018.8mb 88f 87f
11:54am 6
mph
1018.8mb 88f 87f
11:48am 2 3 mph 1018.9mb 88f 89f
11:42am  -  5 mph 1018.9mb 88f 88f
11:36am 5 7 mph 1018.9mb 88f 87f
11:30am 3 5 mph 1018.9mb 88f 87f
11:24am 2 6 mph 1018.9mb 88f 87f
11:18am  -  5 mph 1018.9mb 88f 87f
11:12am 6 8 mph 1018.9mb 88f 87f
11:06am 6 9 mph 1018.9mb 88f 86f
11:00am 3 7 mph 1018.9mb 88f 86f
10:54am 7 8 mph 1018.9mb 87f 86f
10:48am 7 9 mph 1018.8mb 88f 86f
10:42am 7 9 mph 1018.8mb 88f 86f
10:36am  -  7 mph 1018.8mb 88f 86f
10:30am 5 7 mph 1018.9mb 88f 86f
10:24am 6 9 mph 1018.9mb 87f 86f
10:18am 5 6 mph 1018.9mb 88f 85f
10:12am 5 7 mph 1018.8mb 87f 85f
10:06am 5 8 mph 1018.7mb 87f 85f
10:00am 5 8 mph 1018.7mb 87f 85f
9:54am 6 8 mph 1018.7mb 87f 85f
9:48am 7 9 mph 1018.6mb 87f 84f
9:42am 7 9 mph 1018.6mb 87f 84f
9:36am 8 10 mph 1018.6mb 87f 84f
9:30am 6 10 mph 1018.6mb 87f 84f
9:24am 8 9 mph 1018.5mb 87f 84f
9:18am 6 7 mph 1018.5mb 87f 84f
9:12am 6 7 mph 1018.5mb 87f 83f
9:06am 6 7 mph 1018.4mb 87f 83f
9:00am 5 8 mph 1018.4mb 87f 83f
8:54am 6 8 mph 1018.3mb 87f 83f
8:48am 6 7 mph 1018.3mb 87f 83f
8:42am 5 6 mph 1018.3mb 87f 83f
8:36am 5 7 mph 1018.3mb 87f 83f
8:30am 3 6 mph 1018.3mb 86f 82f
8:24am 5 6 mph 1018.2mb 86f 82f
8:18am 5 7 mph 1018.1mb 86f 82f
8:12am 6 7 mph 1018mb 87f 82f
8:06am 6
mph
1017.9mb 86f 82f
8:00am 5
mph
1017.8mb 86f 82f
7:54am 2 3 mph 1017.7mb 86f 82f
7:48am 3 6 mph 1017.6mb 86f 82f
7:42am 3 6 mph 1017.6mb 86f 82f
7:36am 5 7 mph 1017.5mb 87f 82f
7:30am 5 6 mph 1017.3mb 87f 82f
7:24am 5 6 mph 1017.2mb 87f 82f
7:18am 5 7 mph 1017.2mb 87f 82f
7:12am 5 6 mph 1017.1mb 87f 81f
7:06am 5 6 mph 1017mb 87f 82f
7:00am 5 6 mph 1016.9mb 87f 82f
6:54am 5 7 mph 1016.9mb 87f 81f
6:48am 6
mph
1016.8mb 87f 82f
6:42am 5 6 mph 1016.7mb 87f 82f
6:36am 6 9 mph 1016.6mb 87f 82f
6:30am 6 7 mph 1016.5mb 87f 82f
6:24am 5 7 mph 1016.4mb 87f 81f
6:18am 6
mph
1016.3mb 87f 81f
6:12am 5 6 mph 1016.2mb 87f 81f
6:06am 6 7 mph 1016.2mb 87f 81f
6:00am 6 7 mph 1016.2mb 87f 81f
5:54am 6 8 mph 1016.1mb 87f 81f
5:48am 7 8 mph 1016.1mb 87f 81f
5:42am 8 9 mph 1016.1mb 87f 81f
5:36am 7 9 mph 1016.1mb 87f 81f
5:30am 7 9 mph 1016mb 87f 81f
5:24am 7 8 mph 1015.9mb 87f 81f
5:18am 6 8 mph 1015.9mb 87f 81f
5:12am 8 9 mph 1015.9mb 87f 81f
5:06am 5 8 mph 1015.9mb 87f 82f
5:00am 6 8 mph 1015.9mb 87f 82f
4:54am 5 8 mph 1015.9mb 87f 82f
4:48am 7 9 mph 1015.9mb 87f 82f
4:42am 6 8 mph 1015.9mb 87f 82f
4:36am 7 8 mph 1015.9mb 87f 82f
4:30am 7 8 mph 1015.9mb 88f 82f
4:24am 7 9 mph 1015.8mb 88f 82f
4:18am 8 9 mph 1015.8mb 88f 82f
4:12am 7 8 mph 1015.8mb 88f 82f
4:06am 7 8 mph 1015.8mb 88f 82f
4:00am 6 9 mph 1015.9mb 88f 82f
3:54am 7 10 mph 1015.9mb 88f 82f
3:48am 8 10 mph 1015.8mb 88f 81f
3:42am 7 8 mph 1015.9mb 88f 82f
3:36am 7 9 mph 1015.9mb 88f 82f
3:30am 8 10 mph 1016mb 88f 82f
3:24am 8 9 mph 1016.1mb 88f 82f
3:18am 6 8 mph 1016.1mb 88f 82f
3:12am 6 8 mph 1016.1mb 88f 82f
3:06am 7 9 mph 1016.2mb 88f 82f
3:00am 8 10 mph 1016.2mb 88f 82f
2:54am 9 11 mph 1016.4mb 88f 82f
2:48am 10 11 mph 1016.4mb 88f 82f
2:42am 10 13 mph 1016.5mb 88f 82f
2:36am 9 13 mph 1016.4mb 88f 82f
2:30am 8 11 mph 1016.4mb 88f 82f
2:24am 9 11 mph 1016.5mb 88f 82f
2:18am 8 11 mph 1016.4mb 88f 82f
2:12am 9 11 mph 1016.5mb 88f 82f
2:06am 10 13 mph 1016.4mb 88f 83f
2:00am 10 11 mph 1016.4mb 88f 83f
1:54am 10 13 mph 1016.5mb 88f 83f
1:48am 8 11 mph 1016.5mb 88f 83f
1:42am 9 13 mph 1016.6mb 88f 83f
1:36am 10 13 mph 1016.6mb 88f 83f
1:30am 11 14 mph 1016.6mb 88f 83f
1:24am 11 13 mph 1016.6mb 88f 83f
1:18am 10 13 mph 1016.6mb 88f 83f
1:12am 10 11 mph 1016.7mb 88f 83f
1:06am 10 13 mph 1016.8mb 88f 83f
1:00am 9 11 mph 1016.8mb 88f 83f
12:54am 8 13 mph 1016.8mb 88f 83f
12:48am 8 11 mph 1016.7mb 88f 83f
12:42am 9 13 mph 1016.7mb 88f 83f
12:36am 10 14 mph 1016.7mb 88f 83f
12:30am 10 14 mph 1016.8mb 88f 83f
12:24am 9 13 mph 1016.9mb 88f 84f
12:18am 8 14 mph 1016.9mb 88f 84f
12:12am 10 14 mph 1016.9mb 88f 84f
12:06am 9 14 mph 1016.9mb 88f 83f
12:00am 9 13 mph 1016.8mb 88f 84f
Fri 07/29 11:54pm 9 13 mph 1016.9mb 88f 84f
11:48pm 9 13 mph 1016.9mb 88f 84f
11:42pm 8 11 mph 1016.9mb 88f 84f
11:36pm 8 10 mph 1016.8mb 88f 84f
11:30pm  -  mph 1016.8mb - -
11:24pm  -  mph 1016.8mb - -
11:18pm 8 11 mph - 88f -
11:12pm 8 14 mph - 88f -
11:06pm 10 15 mph - 88f -
11:00pm  -  mph 1016.9mb 88f -
10:54pm  -  mph 1016.9mb 88f -
10:48pm 8 11 mph 1016.9mb 88f -
10:42pm 8 11 mph 1017mb 88f -
10:36pm 8 13 mph 1016.9mb 88f -
10:30pm 9 11 mph 1016.8mb 88f -
10:24pm 7 9 mph 1016.8mb 88f -
10:18pm 7 11 mph 1016.7mb 88f -
10:12pm 7 10 mph 1016.7mb 88f -
10:06pm 8 11 mph 1016.7mb 88f -
10:00pm 7 10 mph 1016.7mb 88f 85f
9:54pm 8 11 mph 1016.7mb 88f 85f
9:48pm 8 14 mph 1016.7mb 87f -
9:42pm 9 14 mph 1016.6mb 87f -
9:36pm 9 14 mph 1016.6mb 87f -
9:30pm 11 16 mph 1016.6mb 87f -
9:24pm 8 13 mph 1016.6mb 87f -
9:18pm 11 16 mph - 87f -
9:12pm 13 16 mph - 87f -
9:06pm 8 14 mph - 87f -
9:00pm  -  mph 1016.2mb 87f -
8:54pm  -  mph 1016.1mb 87f -
8:48pm 9 15 mph 1016.1mb 87f -
8:42pm 14 16 mph 1016mb 87f -
8:36pm 11 17 mph 1016mb 87f -
8:30pm 11 17 mph 1016mb 87f -
8:24pm 10 16 mph 1016mb 87f -
8:18pm 13 17 mph - 87f 88f
8:12pm 8 16 mph - 87f 88f
8:06pm 7 16 mph - 87f 89f
8:00pm  -  mph - 87f -
7:54pm  -  mph - 87f -
7:48pm  -  mph - 87f -
7:42pm  -  mph - 87f -
7:36pm  -  mph - 87f -
7:30pm  -  mph - 87f -
7:24pm  -  mph - 87f -
7:18pm  -  mph - 87f -
7:12pm  -  mph - 87f -
7:06pm  -  mph - 87f -
7:00pm  -  mph - 87f -
6:54pm  -  mph - 87f -
6:48pm  -  mph - 87f -
6:42pm  -  mph - 87f -
6:36pm  -  mph - 87f -
6:30pm  -  mph - 87f -
6:24pm  -  mph - 87f -
6:18pm  -  mph 1015.4mb 87f -
6:12pm  -  mph 1015.3mb 87f -
6:06pm  -  mph 1015.2mb 87f -
6:00pm  -  mph 1015.1mb 87f 89f
5:54pm  -  mph 1015.1mb 87f 90f
5:48pm 13 17 mph 1015.1mb 87f 90f
5:42pm 11 17 mph 1015.1mb 87f 90f
5:36pm 13 17 mph 1015.1mb 87f 90f
5:30pm 10 16 mph 1015.1mb 87f 90f
5:24pm 9 14 mph 1015.2mb 87f 91f
5:18pm 9 16 mph 1015.3mb 87f 91f
5:12pm 9 14 mph 1015.3mb 87f 92f
5:06pm 9 14 mph 1015.3mb 87f 92f
5:00pm 9 15 mph 1015.4mb 87f 92f
4:54pm 10 16 mph 1015.5mb 87f 91f
4:48pm 10 14 mph 1015.5mb 87f 91f
4:42pm 10 14 mph 1015.5mb 87f 92f
4:36pm 11 14 mph 1015.5mb 87f 92f
4:30pm 10 13 mph 1015.5mb 87f 92f
4:24pm 7 14 mph 1015.5mb 87f 91f
4:18pm 10 14 mph 1015.6mb 87f 91f
4:12pm 11 14 mph 1015.6mb 87f 90f
4:06pm 11 15 mph 1015.7mb 87f 90f
4:00pm 9 14 mph 1015.6mb 87f 91f
3:54pm 8 14 mph 1015.8mb 87f 91f
3:48pm 10 16 mph 1015.9mb 87f 91f
3:42pm 10 14 mph 1016mb 87f 91f
3:36pm 8 14 mph 1016.1mb 87f 91f
3:30pm 8 14 mph 1016.2mb 87f 91f
3:24pm 10 13 mph 1016.3mb 87f 91f
3:18pm 9 13 mph 1016.3mb 88f 91f
3:12pm 8 13 mph 1016.4mb 88f 91f
3:06pm 11 15 mph 1016.4mb 88f 90f
3:00pm 10 15 mph 1016.4mb 88f 91f
2:54pm 10 14 mph 1016.5mb 88f 91f
2:48pm 9 17 mph 1016.6mb 88f 91f
2:42pm 7 15 mph 1016.6mb 89f 92f
2:36pm 8 15 mph 1016.7mb 89f 92f
2:30pm 8 16 mph 1016.7mb 89f 91f
2:24pm 6 14 mph 1016.9mb 89f 91f
2:18pm 9 14 mph 1017mb 89f 90f
2:12pm 6 11 mph 1017mb 89f 91f
2:06pm 8 10 mph 1017.1mb 89f 90f
2:00pm 3 7 mph 1017.2mb 89f 91f
1:54pm 3 6 mph 1017.3mb 89f 91f
1:48pm 5 10 mph 1017.1mb 89f 92f
1:42pm 7 13 mph 1017.2mb 89f 92f
1:36pm 6 13 mph 1017.2mb 89f 92f
1:30pm 8 11 mph 1017.2mb 88f 91f
1:24pm 11 15 mph 1017.2mb 88f 91f
1:18pm 13 15 mph 1017.2mb 88f 91f
1:12pm 7 11 mph 1017.3mb 88f 91f
1:06pm 10 14 mph 1017.3mb 88f 91f
1:00pm 10 14 mph 1017.3mb 88f 91f
12:54pm 9 14 mph 1017.4mb 88f 91f
12:48pm 9 14 mph 1017.5mb 88f 91f
12:42pm 10 13 mph 1017.6mb 88f 90f
12:36pm 8 13 mph 1017.6mb 88f 90f
12:30pm 9 13 mph 1017.6mb 88f 90f
12:24pm 8 11 mph 1017.6mb 88f 89f
12:18pm 7 10 mph 1017.7mb 88f 89f
12:12pm 6 10 mph 1017.6mb 88f 89f
12:06pm 6 11 mph 1017.7mb 88f 89f
12:00pm 7 9 mph 1017.8mb 88f 89f
11:54am 7 9 mph 1017.8mb 88f 88f
11:48am 7 9 mph 1017.8mb 88f 88f
11:42am 5 7 mph 1017.9mb 88f 88f
11:36am 5 6 mph 1017.9mb 88f 88f
11:30am 6 8 mph 1018mb 88f 87f
11:24am 5 9 mph 1018mb 88f 87f
11:18am 7 10 mph 1018mb 88f 87f
11:12am 6 8 mph 1018mb 88f 87f
11:06am 7 9 mph 1018mb 88f 86f
11:00am 3 8 mph 1017.9mb 88f 86f
10:54am 6 9 mph 1018mb 88f 86f
10:48am 7 9 mph 1018mb 88f 86f
10:42am 7 10 mph 1018mb 87f 86f
10:36am 7 9 mph 1018mb 87f 86f
10:30am 7 10 mph 1018.1mb 87f 86f
10:24am 8 10 mph 1018mb 87f 85f
10:18am 8 11 mph 1018mb 87f 85f
10:12am 8 14 mph 1017.9mb 87f 85f
10:06am 9 10 mph 1017.9mb 87f 85f
10:00am 8 10 mph 1017.9mb 87f 84f
9:54am 9 13 mph 1017.9mb 87f 84f
9:48am 9 10 mph 1017.9mb 87f 84f
9:42am 9 11 mph 1017.9mb 87f 84f
9:36am 8 10 mph 1017.9mb 87f 83f
9:30am 8 11 mph 1017.9mb 87f 83f
9:24am 8 13 mph 1018mb 87f 83f
9:18am 8 13 mph 1018mb 87f 83f
9:12am 9 14 mph 1018mb 87f 83f
9:06am 10 13 mph 1018mb 87f 82f
9:00am 8 11 mph 1017.9mb 87f 82f
8:54am 8 11 mph 1017.9mb 87f 82f
8:48am 9 13 mph 1017.9mb 87f 82f
8:42am 9 11 mph 1017.9mb 87f 82f
8:36am 9 14 mph 1018mb 87f 82f
8:30am 9 14 mph 1018mb 87f 82f
8:24am 9 13 mph 1018mb 87f 82f
8:18am 10 13 mph 1017.9mb 87f 82f
8:12am 9 11 mph 1017.9mb 87f 82f
8:06am 9 13 mph 1017.8mb 86f 82f
8:00am 9 10 mph 1017.8mb 86f 82f
7:54am 8 9 mph 1017.8mb 86f 82f
7:48am 7 9 mph 1017.7mb 86f 82f
7:42am 6 8 mph 1017.7mb 86f 82f
7:36am 7 8 mph 1017.6mb 86f 82f
7:30am 6 8 mph 1017.6mb 86f 82f
7:24am 7 8 mph 1017.5mb 86f 82f
7:18am 7 8 mph 1017.5mb 86f 82f
7:12am 8 9 mph 1017.4mb 87f 82f
7:06am 7 9 mph 1017.4mb 87f 81f
7:00am 7 8 mph 1017.4mb 86f 81f
6:54am 6 8 mph 1017.3mb 87f 81f
6:48am 7 9 mph 1017.3mb 86f 81f
6:42am 7 10 mph 1017.3mb 86f 82f
6:36am 7 8 mph 1017.2mb 87f 81f
6:30am 7 9 mph 1017.1mb 87f 82f
6:24am 7 9 mph 1017.1mb 87f 82f
6:18am 6 8 mph 1017.1mb 87f 82f
6:12am 6 7 mph 1017mb 87f 82f
6:06am 6 7 mph 1017mb 87f 82f
6:00am 6 8 mph 1016.9mb 87f 82f
5:54am 6 8 mph 1016.8mb 87f 82f
5:48am 5 6 mph 1016.9mb 87f 81f
5:42am 6 8 mph 1016.8mb 87f 81f
5:36am 6 8 mph 1016.7mb 87f 81f
5:30am 7 8 mph 1016.7mb 87f 81f
5:24am 6 7 mph 1016.6mb 87f 82f
5:18am 6 7 mph 1016.5mb 87f 82f
5:12am 6 7 mph 1016.5mb 87f 82f
5:06am 6 7 mph 1016.5mb 87f 82f
5:00am 6 8 mph 1016.5mb 87f 82f
4:54am 7 9 mph 1016.4mb 87f 82f
4:48am 7 9 mph 1016.4mb 87f 82f
4:42am 6 8 mph 1016.3mb 87f 82f
4:36am 6 8 mph 1016.3mb 87f 82f
4:30am 6 8 mph 1016.4mb 87f 82f
4:24am 6 8 mph 1016.5mb 87f 82f
4:18am 6 9 mph 1016.5mb 87f 82f
4:12am 6 8 mph 1016.4mb 87f 82f
4:06am 7 8 mph 1016.4mb 87f 82f
4:00am 6 8 mph 1016.3mb 87f 82f
3:54am 7 9 mph 1016.3mb 87f 83f
3:48am 7 8 mph 1016.3mb 87f 83f
3:42am 7 8 mph 1016.3mb 87f 83f
3:36am 6 8 mph 1016.3mb 87f 83f
3:30am 7 8 mph 1016.4mb 87f 83f
3:24am 7 9 mph 1016.4mb 88f 83f
3:18am 7 9 mph 1016.4mb 88f 82f
3:12am 8 9 mph 1016.4mb 88f 82f
3:06am 7 9 mph 1016.4mb 88f 83f
3:00am 8 10 mph 1016.4mb 88f 83f
2:54am 7 10 mph 1016.5mb 88f 83f
2:48am 6 7 mph 1016.5mb 88f -
2:42am 5 9 mph 1016.6mb 88f -
2:36am 8 10 mph 1016.6mb 88f -
2:30am 8 9 mph 1016.7mb 88f 83f
2:24am 7 8 mph 1016.8mb 88f 83f
2:18am 7 9 mph 1016.8mb 88f 83f
2:12am 7 9 mph 1016.8mb 88f 83f
2:06am 8 9 mph 1016.9mb 88f 83f
2:00am 8 10 mph 1016.9mb 88f 83f
1:54am 7 10 mph 1017mb 88f 83f
1:48am 8 9 mph 1017mb 88f -
1:42am 8 10 mph 1017.1mb 88f -
1:36am 8 9 mph 1017.1mb 88f -
1:30am 7 8 mph 1017.1mb 88f 84f
1:24am 7 10 mph 1017.1mb 88f 84f
1:18am 7 9 mph 1017.1mb 88f 83f
1:12am 8 9 mph 1017.1mb 88f 83f
1:06am 7 9 mph 1017.2mb 88f 83f
1:00am 7 9 mph 1017.1mb 88f 83f
12:54am 8 11 mph 1017.2mb 88f 84f
12:48am 10 13 mph 1017.3mb 88f 84f
12:42am 9 11 mph 1017.3mb 88f 84f
12:36am 8 10 mph 1017.3mb 88f 84f
12:30am 6 10 mph 1017.3mb 88f 84f
12:24am 9 11 mph 1017.3mb 88f 84f
12:18am 6 8 mph 1017.3mb 88f 83f
12:12am 7 9 mph 1017.3mb 88f 83f
12:06am 7 9 mph 1017.4mb 88f 83f
12:00am 6 8 mph 1017.4mb 88f 83f
Thu 07/28 11:54pm 6 8 mph 1017.3mb 88f 83f
11:48pm 6 8 mph 1017.3mb 88f 83f
11:42pm 6 7 mph 1017.5mb 88f 83f
11:36pm 5 7 mph 1017.4mb 88f 83f
11:30pm 6 8 mph 1017.5mb 88f 83f
11:24pm 6 8 mph 1017.5mb 88f 83f
11:18pm  -  mph 1017.4mb 88f -
11:12pm  -  mph 1017.4mb 88f -
11:06pm  -  mph 1017.4mb 88f -
11:00pm 5 6 mph - 88f -
10:54pm 3 6 mph - 88f -
10:48pm 3 7 mph 1017.2mb 88f -
10:42pm 3 6 mph 1017.2mb 88f -
10:36pm 5 7 mph 1017mb 88f -
10:30pm 5 7 mph - - -
10:24pm 7 9 mph - - -
10:18pm  -  mph - 88f 82f
10:12pm  -  mph - 88f 82f
10:06pm  -  mph - 88f 82f
10:00pm  -  mph 1016.9mb - -
9:54pm  -  mph 1017mb - -
9:48pm 5 6 mph 1017mb 88f -
9:42pm 5 6 mph 1016.9mb 88f -
9:36pm 5 6 mph 1016.7mb 88f -
9:30pm 6 7 mph 1016.5mb - -
9:24pm 5 6 mph 1016.4mb - -
9:18pm 5 7 mph - 88f -
9:12pm 6 8 mph - 88f -
9:06pm 6 7 mph - 88f -
9:00pm  -  mph - 88f 82f
8:54pm  -  mph - 88f 82f
8:48pm 2 9 mph 1016.7mb 87f -
8:42pm 9 20 mph 1017.1mb 87f -
8:36pm 20 28 mph 1017.1mb 87f -
8:30pm 18 26 mph 1017mb 87f -
8:24pm 7 8 mph 1017mb 87f -
8:18pm 3 9 mph 1016.8mb 87f -
8:12pm 10 14 mph 1016.6mb 87f -
7:42pm 7 9 mph 1015.9mb - -
7:36pm 7 10 mph 1015.8mb - -
7:30pm 7 10 mph - - -
7:24pm 9 15 mph - - -
7:18pm 7 13 mph - 86f -
7:12pm 6 11 mph - 87f -
7:06pm 6 10 mph - 86f -
7:00pm  -  mph - 86f -
6:54pm  -  mph - 86f -
6:48pm  -  mph - 86f -
6:42pm  -  mph - 86f -
6:36pm  -  mph - 86f -
6:30pm 10 15 mph 1015.4mb 87f -
6:24pm 10 16 mph 1015.5mb 86f -
6:18pm 7 15 mph 1015.6mb 86f 89f
6:12pm 9 17 mph 1015.6mb 87f 89f
6:06pm 11 21 mph 1015.5mb 86f 88f
6:00pm 13 17 mph 1015.5mb 86f -
5:54pm 9 14 mph 1015.7mb 87f -
5:48pm 11 17 mph - 87f 89f
5:42pm 11 15 mph - 87f 89f
5:36pm 10 16 mph - 87f 89f
5:30pm 10 16 mph 1015.6mb 87f 89f
5:24pm 11 17 mph 1015.7mb 87f 89f
5:18pm 6 16 mph 1015.7mb 87f 89f
5:12pm 11 16 mph 1015.7mb 87f 88f
5:06pm 11 16 mph 1015.7mb 87f 89f
5:00pm 9 15 mph 1015.7mb 87f 89f
4:54pm 8 16 mph 1015.9mb 87f 89f
4:48pm 11 17 mph 1015.9mb 87f 89f
4:42pm 14 17 mph 1016mb 87f 88f
4:36pm 13 16 mph 1016.1mb 87f 89f
4:30pm 9 15 mph 1016mb 86f 90f
4:24pm 14 17 mph 1016mb 87f 89f
4:18pm 13 16 mph 1016.1mb 87f 89f
4:12pm 13 16 mph 1016.2mb 86f 89f
4:06pm 10 17 mph 1016.1mb 87f 90f
4:00pm 11 17 mph 1016.2mb 86f 89f
3:54pm 11 15 mph 1016.2mb 87f 90f
3:48pm 10 15 mph 1016.2mb 87f 90f
3:42pm 8 16 mph 1016.4mb 87f 90f
3:36pm 13 16 mph 1016.5mb 87f 89f
3:30pm 10 16 mph 1016.5mb 87f 90f
3:24pm 10 16 mph 1016.5mb 87f 90f
3:18pm 10 15 mph 1016.5mb 87f 90f
3:12pm 11 16 mph 1016.6mb 87f 89f
3:06pm 13 16 mph 1016.6mb 87f 89f
3:00pm 9 15 mph 1016.7mb 87f 90f
2:54pm 10 15 mph 1016.8mb 87f 90f
2:48pm 11 15 mph 1016.8mb 87f 89f
2:42pm 8 13 mph 1016.9mb 87f 90f
2:36pm 13 16 mph 1017mb 87f 89f
2:30pm 9 13 mph 1017mb 87f 90f
2:24pm 9 14 mph 1017.1mb 87f 90f
2:18pm 9 14 mph 1017.1mb 88f 89f
2:12pm 9 14 mph 1017.2mb 89f 89f
2:06pm 9 14 mph 1017.2mb 89f 90f
2:00pm 10 14 mph 1017.2mb 89f 89f
1:54pm 9 14 mph 1017.2mb 89f 89f
1:48pm 10 14 mph 1017.3mb 89f 89f
1:42pm 9 13 mph 1017.3mb 89f 89f
1:36pm 13 14 mph 1017.4mb 89f 88f
1:30pm 10 15 mph 1017.5mb 89f 88f
1:24pm 8 13 mph 1017.5mb 89f 89f
1:18pm 10 13 mph 1017.5mb 89f 88f
1:12pm 7 11 mph 1017.6mb 89f 88f
1:06pm 9 11 mph 1017.7mb 89f 88f
1:00pm 10 13 mph 1017.8mb 89f 87f
12:54pm 10 13 mph 1017.8mb 89f 87f
12:48pm 10 13 mph 1017.9mb 89f 87f
12:42pm 13 14 mph 1017.9mb 89f 86f
12:36pm 7 10 mph 1017.9mb 89f 88f
12:30pm 9 11 mph 1018mb 89f 86f
12:24pm 9 10 mph 1018.1mb 89f 87f
12:18pm 3 6 mph 1018.2mb 89f 88f
12:12pm 2 6 mph 1018.2mb 89f 88f
12:06pm 3 9 mph 1018.2mb 89f 87f
12:00pm 8 10 mph 1018.3mb 89f 86f
11:54am 7 8 mph 1018.2mb 89f 87f
11:48am 7 8 mph 1018.4mb 89f 86f
11:42am 7 8 mph 1018.4mb 89f 86f
11:36am 7 9 mph 1018.5mb 89f 86f
11:30am 8 9 mph 1018.6mb 89f 86f
11:24am 8 10 mph 1018.6mb 89f 86f
11:18am 8 9 mph 1018.7mb 88f 86f
11:12am 7 9 mph 1018.7mb 88f 86f
11:06am 8 9 mph 1018.7mb 88f 86f
11:00am 5 6 mph 1018.7mb 88f 88f
10:54am  -  3 mph 1018.7mb 88f 87f
10:48am 3 8 mph 1018.7mb 88f 87f
10:42am 3 8 mph 1018.8mb 88f 87f
10:36am 3 6 mph 1018.8mb 88f 86f
10:30am 2 8 mph 1018.7mb 88f 86f
10:24am 5 7 mph 1018.7mb 88f 86f
10:18am 6 8 mph 1018.6mb 88f 86f
10:12am 6 8 mph 1018.7mb 88f 86f
10:06am 5 8 mph 1018.7mb 88f 85f
10:00am 6 8 mph 1018.7mb 88f 85f
9:54am 3 8 mph 1018.6mb 88f 85f
9:48am 6 9 mph 1018.7mb 88f 85f
9:42am 7 10 mph 1018.6mb 88f 85f
9:36am 7 8 mph 1018.6mb 88f 85f
9:30am 6 9 mph 1018.5mb 88f 85f
9:24am 6 7 mph 1018.6mb 88f 84f
9:18am 7 8 mph 1018.6mb 88f 84f
9:12am 7 9 mph 1018.5mb 88f 84f
9:06am 8 9 mph 1018.5mb 88f 83f
9:00am 7 9 mph 1018.5mb 88f 83f
8:54am 7 11 mph 1018.4mb 88f 83f
8:48am 8 9 mph 1018.4mb 88f 83f
8:42am 8 10 mph 1018.3mb 88f 83f
8:36am 6 10 mph 1018.2mb 88f 83f
8:30am 6 9 mph 1018.2mb 88f 83f
8:24am 5 7 mph 1018.2mb 88f 83f
8:18am 6 9 mph 1018.1mb 88f 83f
8:12am 5 8 mph 1018mb 88f 83f
8:06am 6 7 mph 1018mb 87f 83f
8:00am 5 7 mph 1018mb 87f 82f
7:54am 3 5 mph 1017.9mb 87f 82f
7:48am 3 6 mph 1017.9mb 87f 82f
7:42am 5 6 mph 1017.7mb 87f 82f
7:36am 5 6 mph 1017.8mb 87f 82f
7:30am 5 6 mph 1017.8mb 87f 82f
7:24am 5 6 mph 1017.8mb 87f 82f
7:18am 6
mph
1017.8mb 87f 82f
7:12am 5 8 mph 1017.8mb 87f 82f
7:06am 6
mph
1017.8mb 86f 82f
7:00am 6
mph
1017.7mb 87f 82f
6:54am 5 6 mph 1017.8mb 86f 82f
6:48am 5 6 mph 1017.7mb 86f 82f
6:42am 6
mph
1017.7mb 86f 82f
6:36am 5
mph
1017.6mb 87f 82f
6:30am 3 5 mph 1017.7mb 87f 82f
6:24am 5
mph
1017.7mb 86f 82f
6:18am 3 5 mph 1017.7mb 86f 82f
6:12am 5
mph
1017.7mb 86f 82f
6:06am 5 6 mph 1017.7mb 86f 82f
6:00am 5 6 mph 1017.7mb 86f 82f
5:54am 5 6 mph 1017.6mb 86f 82f
5:48am 5 6 mph 1017.6mb 86f 82f
5:42am 5 6 mph 1017.7mb 86f 82f
5:36am 5 6 mph 1017.7mb 86f 82f
5:30am 5 6 mph 1017.7mb 86f 82f
5:24am 5 6 mph 1017.7mb 86f 82f
5:18am 6 7 mph 1017.6mb 86f 82f
5:12am 6 8 mph 1017.7mb 86f 82f
5:06am 7 8 mph 1017.7mb 86f 82f
5:00am 7 9 mph 1017.6mb 86f 82f
4:54am 7 9 mph 1017.6mb 86f 82f
4:48am 8 9 mph 1017.6mb 86f 82f
4:42am 7 9 mph 1017.5mb 86f 82f
4:36am 7 9 mph 1017.6mb 86f 82f
4:30am 6 7 mph 1017.6mb 86f 82f
4:24am 6 8 mph 1017.7mb 86f 82f
4:18am 7 8 mph 1017.7mb 86f 82f
4:12am 7 9 mph 1017.7mb 86f 82f
4:06am 7 8 mph 1017.7mb 86f 82f
4:00am 6 7 mph 1017.7mb 86f 82f
3:54am 7 8 mph 1017.7mb 87f 82f
3:48am 7 9 mph 1017.7mb 87f 83f
3:42am 6 8 mph 1017.7mb 87f 83f
3:36am 6 8 mph 1017.8mb 87f 82f
3:30am 7 8 mph 1017.8mb 87f 82f
3:24am 7 8 mph 1017.8mb 87f 82f
3:18am 7 8 mph 1017.8mb 87f 82f
3:12am 7 8 mph 1017.8mb 87f 82f
3:06am 7 8 mph 1017.8mb 87f 83f
3:00am 7 9 mph 1017.7mb 87f 83f
2:54am 7 8 mph 1017.7mb 87f 83f
2:48am 7 8 mph 1017.7mb 87f -
2:42am 5 6 mph 1017.7mb 87f -
2:36am 3 6 mph 1017.7mb 87f -
2:30am 3 6 mph 1017.8mb 88f 83f
2:24am 3 5 mph 1017.9mb 88f 82f
2:18am 5 6 mph 1017.9mb 88f 82f
2:12am 5 7 mph 1017.8mb 88f 82f
2:06am 3 8 mph 1017.8mb 88f 82f
2:00am 6 8 mph 1017.8mb 88f 82f
1:54am 6 9 mph 1017.9mb 88f 82f
1:48am 6 10 mph 1018mb 88f -
1:42am 6 9 mph 1018mb 89f -
1:36am 7 9 mph 1018mb 89f -
1:30am 7 9 mph 1018mb 89f 82f
1:24am 7 9 mph 1017.9mb 89f 82f
1:18am 6 9 mph 1018mb 89f 82f
1:12am 6 9 mph 1017.9mb 89f 83f
1:06am 6 9 mph 1017.9mb 89f 83f
1:00am 5 8 mph 1018mb 89f 83f
12:54am 5 8 mph 1018mb 89f 83f
12:48am 6 8 mph 1018mb 89f 83f
12:42am 5 7 mph 1017.9mb 89f 83f
12:36am 5 7 mph 1017.9mb 89f 83f
12:30am 6 8 mph 1017.9mb 89f 83f
12:24am 6 7 mph 1017.8mb 89f 83f
12:18am 5 8 mph 1017.8mb 89f 83f
12:12am 5 7 mph 1017.7mb 89f 83f
12:06am 6 8 mph 1017.7mb 89f 83f
12:00am 5 8 mph 1017.8mb 89f 83f
Wed 07/27 11:54pm 6 8 mph 1017.8mb 89f 83f
11:48pm 6 10 mph 1017.7mb 89f 83f
11:42pm 6 10 mph 1017.6mb 89f 83f
11:36pm 6 10 mph 1017.7mb 89f 83f
11:30pm 7 11 mph 1017.8mb 88f 83f
11:24pm 9 11 mph 1017.8mb 89f 83f
11:18pm 8 13 mph - 89f -
11:12pm 7 9 mph - 88f -
11:06pm 6 10 mph - 88f -
11:00pm 8 13 mph 1017.9mb 88f -
10:54pm 7 11 mph 1017.9mb 88f -
10:48pm 6 13 mph - - -
10:42pm 7 10 mph - - -
10:36pm 6 10 mph - - -
10:30pm 7 11 mph - - -
10:24pm 7 10 mph - - -
10:18pm 7 13 mph - 88f -
10:12pm 8 13 mph - 88f -
10:06pm 7 11 mph - 88f -
10:00pm  -  mph - 88f -
9:54pm  -  mph - 88f -
9:48pm 8 14 mph - - -
9:42pm 6 11 mph - - -
9:36pm 9 14 mph - - -
9:30pm  -  mph 1017.1mb - -
9:24pm  -  mph 1017mb - -
9:18pm 7 13 mph - - -
9:12pm 7 13 mph - - -
9:06pm 6 11 mph - - -
9:00pm  -  mph - 88f -
8:54pm  -  mph - 88f -
8:48pm 10 15 mph 1017mb - -
8:42pm 8 13 mph 1017mb - -
8:36pm 8 14 mph 1016.9mb - -
8:30pm  -  mph 1016.9mb 88f -
8:24pm  -  mph 1016.9mb 88f -
8:18pm  -  mph - 88f 86f
8:12pm  -  mph - 88f 86f
8:06pm  -  mph - 88f 86f
8:00pm  -  mph - 88f 86f
7:54pm  -  mph - 88f 87f
7:48pm  -  mph 1016.7mb - -
7:42pm  -  mph 1016.6mb - -
7:36pm  -  mph 1016.5mb - -
7:30pm 9 15 mph - 87f -
7:24pm 8 16 mph - 87f -
7:18pm  -  mph - 87f 87f
7:12pm  -  mph - 87f 87f
7:06pm  -  mph - 87f 88f
7:00pm  -  mph - 87f 88f
6:54pm  -  mph - 87f 88f
6:48pm  -  mph - 86f 88f
6:42pm  -  mph - 87f 87f
6:36pm  -  mph - 87f 87f
6:30pm 10 15 mph - - -
6:24pm 13 16 mph - - -
6:18pm 8 14 mph 1016.7mb 87f 88f
6:12pm 9 13 mph 1016.6mb 87f 88f
6:06pm 9 13 mph 1016.7mb 86f 88f
6:00pm  -  mph - 86f -
5:54pm  -  mph - 86f -
5:48pm 10 14 mph - 86f 88f
5:42pm 7 10 mph - 86f 89f
5:36pm 8 15 mph - 86f 89f
5:30pm 10 15 mph 1017.1mb 86f 88f
5:24pm 8 13 mph 1017.1mb 86f 89f
5:18pm 8 14 mph 1017.1mb 86f 89f
5:12pm 10 15 mph 1017.1mb 86f 88f
5:06pm 8 15 mph 1017.2mb 86f 89f
5:00pm 13 15 mph 1017.1mb 86f 88f
4:54pm 10 15 mph 1017.2mb 86f 89f
4:48pm 7 16 mph 1017.2mb 86f 89f
4:42pm 10 16 mph 1017.2mb 86f 89f
4:36pm 10 14 mph 1017.2mb 86f 89f
4:30pm 11 15 mph 1017.3mb 86f 89f
4:24pm 9 16 mph 1017.3mb 86f 89f
4:18pm 10 14 mph 1017.4mb 86f 89f
4:12pm 9 14 mph 1017.4mb 86f 89f
4:06pm 13 16 mph 1017.5mb 86f 89f
4:00pm 13 15 mph 1017.5mb 86f 89f
3:54pm 11 17 mph 1017.5mb 86f 89f
3:48pm 10 15 mph 1017.6mb 86f 89f
3:42pm 11 15 mph 1017.6mb 86f 89f
3:36pm 9 15 mph 1017.7mb 86f 90f
3:30pm 10 15 mph 1017.7mb 86f 89f
3:24pm 10 14 mph 1017.8mb 86f 90f
3:18pm 8 15 mph 1017.9mb 86f 90f
3:12pm 10 15 mph 1018mb 86f 89f
3:06pm 8 14 mph 1018.1mb 86f 89f
3:00pm 9 16 mph 1018.1mb 86f 89f
2:54pm 10 16 mph 1018.1mb 86f 89f
2:48pm 9 16 mph 1018.3mb 86f 89f
2:42pm 10 15 mph 1018.4mb 86f 89f
2:36pm 10 14 mph 1018.4mb 86f 89f
2:30pm 11 16 mph 1018.5mb 86f 89f
2:24pm 9 14 mph 1018.5mb 86f 89f
2:18pm 9 13 mph 1018.5mb 86f 89f
2:12pm 9 13 mph 1018.6mb 86f 89f
2:06pm 10 13 mph 1018.7mb 87f 88f
2:00pm 10 13 mph 1018.7mb 87f 89f
1:54pm 8 11 mph 1018.7mb 87f 90f
1:48pm 7 11 mph 1018.8mb 87f 89f
1:42pm 7 13 mph 1018.8mb 87f 89f
1:36pm 7 14 mph 1018.8mb 87f 89f
1:30pm 7 9 mph 1019mb 88f 89f
1:24pm 6 10 mph 1019mb 89f 88f
1:18pm 7 9 mph 1019.1mb 89f 88f
1:12pm 6 8 mph 1019.2mb 89f 88f
1:06pm 6 7 mph 1019.4mb 89f 88f
1:00pm 5 7 mph 1019.4mb 88f 87f
12:54pm 5 6 mph 1019.5mb 89f 87f
12:48pm 6 9 mph 1019.6mb 89f 87f
12:42pm 6 7 mph 1019.6mb 89f 86f
12:36pm 5 8 mph 1019.7mb 89f 87f
12:30pm 7 9 mph 1019.7mb 89f 86f
12:24pm 6 8 mph 1019.7mb 89f 86f
12:18pm 3 6 mph 1019.7mb 89f 87f
12:12pm 5 8 mph 1019.7mb 88f 86f
12:06pm 5 9 mph 1019.7mb 89f 86f
12:00pm 7 11 mph 1019.8mb 88f 86f
11:54am 8 10 mph 1019.8mb 89f 85f
11:48am 6 8 mph 1019.9mb 89f 86f
11:42am 5 6 mph 1019.9mb 89f 87f
11:36am 1 5 mph 1019.9mb 89f 88f
11:30am 5 7 mph 1019.9mb 88f 87f
11:24am 2 5 mph 1019.9mb 88f 87f
11:18am  -  7 mph 1019.9mb 88f 87f
11:12am 5 6 mph 1019.8mb 88f 87f
11:06am 2 7 mph 1019.7mb 88f 87f
11:00am 5 9 mph 1019.8mb 88f 86f
10:54am 7 8 mph 1019.7mb 88f 86f
10:48am 7 8 mph 1019.7mb 88f 86f
10:42am 3 7 mph 1019.7mb 88f 86f
10:36am 6 8 mph 1019.6mb 88f 86f
10:30am 5 8 mph 1019.6mb 88f 86f